Waarnemingen

Advertentie
Mijn weer
Nancy/Ochey, Frankrijk (7181): temperatuur & dauwpunt: 19.04.2018 02:00:00 - 25.04.2018 02:00:00 (CEST)Nancy/Ochey, Frankrijk (7181): temperatuur 5cm: 19.04.2018 02:00:00 - 25.04.2018 02:00:00 (CEST)Nancy/Ochey, Frankrijk (7181): temperatuur -20cm & temperatuur -100cm: 19.04.2018 02:00:00 - 25.04.2018 02:00:00 (CEST)Nancy/Ochey, Frankrijk (7181): windsnelheid & windstoten: 19.04.2018 02:00:00 - 25.04.2018 02:00:00 (CEST)Nancy/Ochey, Frankrijk (7181): windrichting: 19.04.2018 02:00:00 - 25.04.2018 02:00:00 (CEST)Nancy/Ochey, Frankrijk (7181): luchtdruk: 19.04.2018 02:00:00 - 25.04.2018 02:00:00 (CEST)Nancy/Ochey, Frankrijk (7181): zicht: 19.04.2018 02:00:00 - 25.04.2018 02:00:00 (CEST)Nancy/Ochey, Frankrijk (7181): neerslag: 19.04.2018 02:00:00 - 25.04.2018 02:00:00 (CEST)
Datum & Tijd tt [°C] td [°C] tt 5cm [°C] tt -20cm [°C] tt -100cm [°C] ff [km/u] ff [kn] fx [km/u] fx [kn] dd ppp [hPa] vv [km] rr [mm]
25.04.2018 02:00:00 12,9 8,2 10,6 13,7 10,4 19 10 23 12 ZZW 1014,4 48 0,0
25.04.2018 01:00:00 12,7 8,2 10,0 13,7 10,4 16 9 22 12 Z 1014,6 50 0,0
25.04.2018 00:00:00 13,4 8,2 8,0 13,7 10,4 12 6 16 8 Z 1014,9 54 0,0
24.04.2018 23:00:00 13,7 8,1 8,0 13,7 10,4 11 6 14 8 Z 1015,2 59 0,0
24.04.2018 22:00:00 14,6 7,6 9,4 13,6 10,4 12 6 16 9 Z 1015,3 57 0,0
24.04.2018 21:00:00 16,5 7,7 12,0 13,6 10,3 13 7 16 9 Z 1015,1 57 0,0
24.04.2018 20:00:00 17,6 8,4 16,2 13,5 10,3 11 6 22 12 ZW 1015,3 60 0,0
24.04.2018 19:00:00 19,3 7,7 20,6 13,5 10,3 16 9 29 16 WZW 1015,3 52 0,0
24.04.2018 18:00:00 19,9 7,3 23,0 13,4 10,3 19 10 32 18 ZW 1015,7 55 0,0
24.04.2018 17:00:00 20,0 8,0 26,6 13,4 10,3 20 11 32 18 ZW 1016,2 60 0,0
24.04.2018 16:00:00 19,9 7,9 23,9 13,3 10,3 19 10 33 18 ZZW 1017,1 60 0,0
24.04.2018 15:00:00 19,3 8,3 23,4 13,3 10,3 14 8 33 18 ZW 1018,1 54 0,0
24.04.2018 14:00:00 18,5 8,5 20,3 13,3 10,3 11 6 28 15 WZW 1019,0 20 0,0
24.04.2018 13:00:00 17,3 8,7 19,4 13,4 10,3 17 9 28 15 WZW 1019,5 24 0,0
24.04.2018 12:00:00 16,8 9,5 21,1 13,4 10,3 13 7 23 12 WZW 1019,7 20 0,0
24.04.2018 11:00:00 16,0 9,9 18,8 13,5 10,3 12 6 27 15 W 1019,8 20 0,0
24.04.2018 10:00:00 14,3 10,7 16,7 13,5 10,2 11 6 18 10 WZW 1020,4 36 0,0
24.04.2018 09:00:00 12,6 10,7 12,8 13,6 10,2 9 5 13 7 WZW 1020,3 19 0,0
24.04.2018 08:00:00 10,4 9,5 8,1 13,6 10,2 6 4 12 6 Z 1020,4 13 0,0
24.04.2018 07:00:00 9,0 8,5 2,0 13,7 10,2 8 5 11 6 ZZW 1020,6 10 0,0
24.04.2018 06:00:00 8,8 8,2 2,6 13,8 10,2 5 3 8 5 ZZO 1020,5 9 0,0
24.04.2018 05:00:00 9,9 9,1 8,3 13,8 10,2 6 3 10 5 ZW 1020,3 12 0,0
24.04.2018 04:00:00 9,8 9,2 7,9 13,8 10,2 6 3 13 7 ZW 1020,2 9 0,0
24.04.2018 03:00:00 10,4 9,6 9,2 13,9 10,2 9 5 19 10 ZW 1020,1 11 0,0
24.04.2018 02:00:00 11,0 9,9 9,2 13,9 10,2 11 6 18 10 ZZW 1020,0 11 0,2
24.04.2018 01:00:00 11,1 9,7 9,1 13,9 10,1 9 5 16 9 ZZW 1020,2 15 0,0
24.04.2018 00:00:00 11,4 10,0 9,4 13,9 10,1 4 2 16 9 ZW 1020,1 19 0,0
23.04.2018 23:00:00 12,1 10,0 8,6 13,9 10,1 9 5 13 7 ZW 1019,9 25 0,0
23.04.2018 22:00:00 13,1 10,3 7,4 13,9 10,1 10 5 12 6 ZZW 1019,5 30 0,0
23.04.2018 21:00:00 13,5 10,3 8,6 13,9 10,1 5 3 16 9 W 1018,9 37 0,0
23.04.2018 20:00:00 16,1 11,0 15,1 13,9 10,1 14 8 26 14 WNW 1018,1 42 0,0
23.04.2018 19:00:00 17,7 11,7 17,8 13,8 10,1 16 9 28 15 W 1017,5 43 0,0
23.04.2018 18:00:00 17,8 12,5 18,2 13,8 10,0 13 7 29 16 W 1017,3 31 0,0
23.04.2018 17:00:00 18,6 12,6 18,9 13,8 10,0 12 6 31 17 W 1017,3 24 0,0
23.04.2018 16:00:00 17,9 13,0 16,1 13,8 10,0 9 5 29 16 W 1017,1 20 0,0
23.04.2018 15:00:00 17,4 13,9 15,6 13,7 10,0 13 7 35 19 WZW 1017,2 18 0,6
23.04.2018 14:00:00 16,8 13,7 15,3 13,7 10,0 16 8 32 17 WZW 1017,7 17 0,6
23.04.2018 13:00:00 18,9 14,0 23,1 13,7 10,0 16 9 27 14 ZW 1017,1 36 0,0
23.04.2018 12:00:00 17,7 14,2 19,5 13,8 10,0 18 10 26 14 ZW 1017,4 19 0,0
23.04.2018 11:00:00 17,0 14,1 17,4 13,8 10,0 18 10 26 14 WZW 1017,2 20 0,0
23.04.2018 10:00:00 16,0 13,3 16,4 13,8 10,0 16 9 24 13 WZW 1017,1 20 0,0
23.04.2018 09:00:00 14,9 12,6 13,8 13,9 10,0 10 5 22 12 Z 1016,5 34 0,0
23.04.2018 08:00:00 14,4 12,1 12,8 13,9 10,0 16 9 25 13 Z 1016,2 35 0,2
23.04.2018 07:00:00 14,4 12,1 12,7 13,9 9,9 19 10 26 14 Z 1016,4 9 0,4
23.04.2018 06:00:00 15,1 11,1 12,8 13,9 9,9 8 4 16 8 ZW 1015,6 29 0,0
23.04.2018 05:00:00 15,7 10,2 14,1 13,9 9,9 13 7 20 11 ZZW 1015,4 47 0,0
23.04.2018 04:00:00 15,6 9,9 14,2 13,9 9,9 16 9 22 12 ZZW 1015,3 54 0,0
23.04.2018 03:00:00 16,5 9,9 14,2 13,9 9,9 18 10 23 12 ZZW 1015,1 46 0,0
23.04.2018 02:00:00 16,1 10,0 14,4 13,9 9,9 16 9 21 11 ZZW 1015,0 48 0,0
23.04.2018 01:00:00 16,6 9,8 14,5 13,9 9,9 16 9 24 13 ZZW 1014,9 51 0,0
23.04.2018 00:00:00 16,8 9,5 14,7 13,8 9,9 18 10 24 13 ZZW 1014,8 54 0,0
22.04.2018 23:00:00 18,6 9,1 15,6 13,8 9,8 16 9 19 10 ZZW 1014,4 56 0,0
22.04.2018 22:00:00 19,7 8,4 17,2 13,7 9,8 14 7 18 10 ZZW 1014,1 57 0,0
22.04.2018 21:00:00 20,6 7,9 17,6 13,7 9,8 13 7 15 8 Z 1013,6 55 0,0
22.04.2018 20:00:00 20,5 8,8 18,5 13,6 9,8 10 5 27 15 ZW 1013,2 57 0,0
22.04.2018 19:00:00 23,3 8,2 23,0 13,5 9,8 21 11 34 19 WZW 1012,6 51 0,0
22.04.2018 18:00:00 24,7 9,4 24,8 13,5 9,8 21 11 37 20 WZW 1012,3 38 0,0
22.04.2018 17:00:00 25,3 7,9 26,6 13,3 9,8 22 12 32 18 WZW 1012,4 20 0,0
22.04.2018 16:00:00 25,4 9,2 27,3 13,3 9,8 19 10 35 19 WZW 1012,5 48 0,0
22.04.2018 15:00:00 25,8 8,3 30,5 13,2 9,7 24 13 42 23 ZZW 1013,0 33 0,0
22.04.2018 14:00:00 25,5 10,9 28,9 13,2 9,7 20 11 36 19 ZW 1013,2 19 0,0
22.04.2018 13:00:00 25,3 11,5 29,4 13,2 9,7 25 14 37 20 ZZW 1013,5 32 0,0
22.04.2018 12:00:00 24,4 11,7 29,0 13,3 9,7 22 12 31 17 ZZW 1013,8 34 0,0
22.04.2018 11:00:00 22,2 11,0 26,6 13,3 9,7 20 11 30 16 ZZW 1014,5 33 0,0
22.04.2018 10:00:00 20,4 12,6 22,0 13,3 9,7 12 6 21 11 ZZO 1014,6 20 0,0
22.04.2018 09:00:00 17,8 10,7 17,8 13,4 9,7 9 5 19 10 ZO 1014,6 38 0,0
22.04.2018 08:00:00 16,0 10,3 10,4 13,4 9,7 15 8 18 10 ZZO 1015,3 43 0,0
22.04.2018 07:00:00 14,1 9,9 7,3 13,5 9,7 3 1 11 6 Z 1015,5 29 0,0
22.04.2018 06:00:00 11,1 9,5 4,1 13,5 9,7 7 4 10 5 ZO 1015,7 20 0,0
22.04.2018 05:00:00 12,3 9,8 4,9 13,5 9,7 6 4 10 5 Z 1015,9 31 0,0
22.04.2018 04:00:00 12,8 10,0 5,3 13,5 9,6 2 1 6 4 Z 1016,0 26 0,0
22.04.2018 03:00:00 13,2 9,4 6,0 13,5 9,6 3 2 10 6 Z 1016,2 29 0,0
22.04.2018 02:00:00 15,8 10,1 7,8 13,5 9,6 6 3 10 5 ZO 1016,2 31 0,0
22.04.2018 01:00:00 15,4 10,4 7,9 13,5 9,6 6 4 9 5 ZZW 1016,9 30 0,0
22.04.2018 00:00:00 17,6 10,5 8,4 13,4 9,6 8 5 9 5 ZZO 1017,0 33 0,0
21.04.2018 23:00:00 17,1 10,5 8,9 13,4 9,6 3 2 6 4 ZZW 1017,1 49 0,0
21.04.2018 22:00:00 19,2 11,5 10,2 13,3 9,6 4 2 8 5 OZO 1016,8 36 0,0
21.04.2018 21:00:00 20,7 9,9 11,4 13,2 9,6 5 3 6 3 NNO 1016,6 47 0,0
21.04.2018 20:00:00 23,7 10,0 17,6 13,0 9,5 5 3 8 4 N 1016,0 49 0,0
21.04.2018 19:00:00 25,3 9,6 27,4 13,0 9,5 3 2 13 7 NNW 1015,9 54 0,0
21.04.2018 18:00:00 26,1 9,9 31,1 12,9 9,5 8 4 18 10 NW 1016,1 50 0,0
21.04.2018 17:00:00 26,6 10,3 34,2 12,8 9,5 6 4 18 10 WNW 1016,3 42 0,0
21.04.2018 16:00:00 26,6 9,9 27,3 12,7 9,5 3 1 11 6 ZW 1017,0 21 0,0
21.04.2018 15:00:00 26,0 9,8 34,8 12,7 9,5 7 4 16 8 NNW 1017,7 48 0,0
21.04.2018 14:00:00 25,5 11,3 34,8 12,7 9,5 5 3 12 7 N 1018,3 20 0,0
21.04.2018 13:00:00 24,2 12,5 33,0 12,7 9,4 5 3 14 7 NW 1019,1 20 0,0
21.04.2018 12:00:00 22,7 12,6 31,2 12,7 9,4 4 2 10 6 NW 1019,8 35 0,0
21.04.2018 11:00:00 21,0 12,4 27,6 12,7 9,4 3 1 8 4 NW 1020,3 20 0,0
21.04.2018 10:00:00 18,2 11,7 23,7 12,8 9,4 3 1 8 4 NW 1020,7 30 0,0
21.04.2018 09:00:00 16,2 11,1 15,9 12,8 9,4 2 1 5 3 W 1021,0 29 0,0
21.04.2018 08:00:00 13,4 10,2 6,8 12,9 9,4 4 2 7 4 ZZW 1021,4 39 0,0
21.04.2018 07:00:00 11,8 9,2 4,6 12,9 9,4 4 2 6 3 ZZW 1021,1 36 0,0
21.04.2018 06:00:00 12,5 9,3 4,9 12,9 9,4 4 2 6 4 ZW 1020,6 41 0,0
21.04.2018 05:00:00 11,9 8,7 5,7 12,9 9,4 3 1 8 4 Z 1021,0 44 0,0
21.04.2018 04:00:00 14,2 8,8 9,5 12,9 9,4 4 2 8 4 ZZW 1020,7 49 0,0
21.04.2018 03:00:00 14,9 8,8 7,5 12,9 9,4 5 3 8 5 ZZW 1020,8 49 0,0
21.04.2018 02:00:00 15,3 9,0 7,6 12,9 9,4 6 3 8 4 ZZW 1021,1 55 0,0
21.04.2018 01:00:00 15,7 8,9 6,9 12,9 9,3 5 3 8 4 ZZW 1021,5 53 0,0
21.04.2018 00:00:00 15,6 9,0 7,6 12,9 9,3 3 2 9 5 ZZW 1021,6 47 0,0
20.04.2018 23:00:00 17,5 9,1 7,9 12,8 9,3 5 3 6 4 ZW 1021,5 45 0,0
20.04.2018 22:00:00 18,5 7,9 9,0 12,7 9,3 0 0 4 2 N 1021,4 57 0,0
20.04.2018 21:00:00 20,0 10,1 10,7 12,6 9,3 4 2 7 4 ONO 1021,0 57 0,0
20.04.2018 20:00:00 23,1 9,1 16,6 12,5 9,3 5 3 13 7 N 1020,4 53 0,0
20.04.2018 19:00:00 24,6 9,3 25,0 12,5 9,3 8 4 16 9 N 1020,3 54 0,0
20.04.2018 18:00:00 25,5 8,5 28,9 12,3 9,2 11 6 19 11 N 1020,5 45 0,0
20.04.2018 17:00:00 26,2 7,2 33,2 12,3 9,2 11 6 29 16 NNW 1020,8 40 0,0
20.04.2018 16:00:00 26,4 7,9 35,1 12,2 9,2 11 6 23 12 NNW 1021,3 20 0,0
20.04.2018 15:00:00 26,2 10,8 34,4 12,2 9,2 12 6 21 11 NW 1021,7 38 0,0
20.04.2018 14:00:00 25,1 8,6 33,9 12,2 9,2 13 7 24 13 NNW 1022,3 19 0,0
20.04.2018 13:00:00 24,9 10,0 33,1 12,2 9,2 12 6 18 10 N 1022,8 20 0,0
20.04.2018 12:00:00 22,7 10,8 31,9 12,2 9,1 7 4 13 7 NW 1023,3 20 0,0
20.04.2018 11:00:00 20,9 11,5 27,6 12,2 9,1 6 4 11 6 WNW 1023,6 29 0,0
20.04.2018 10:00:00 18,1 11,6 23,6 12,3 9,1 3 2 6 3 W 1023,8 20 0,0
20.04.2018 09:00:00 16,3 10,8 14,7 12,3 9,1 0 0 4 2 N 1024,1 26 0,0
20.04.2018 08:00:00 12,9 10,3 4,2 12,4 9,2 2 1 6 4 Z 1024,3 20 0,0
20.04.2018 07:00:00 10,6 8,7 3,5 12,4 9,2 0 0 4 2 N 1024,4 28 0,0
20.04.2018 06:00:00 12,1 8,8 4,2 12,4 9,1 3 1 4 2 ZZW 1024,1 30 0,0
20.04.2018 05:00:00 12,4 9,0 4,8 12,4 9,1 3 1 4 2 Z 1024,3 32 0,0
20.04.2018 04:00:00 13,2 9,3 5,1 12,4 9,1 2 1 4 2 ZW 1024,4 35 0,0
20.04.2018 03:00:00 13,8 9,2 5,5 12,4 9,1 2 1 6 3 W 1024,4 41 0,0
20.04.2018 02:00:00 13,8 8,4 6,4 12,4 9,1 3 2 12 6 NNW 1024,6 47 0,0
20.04.2018 01:00:00 13,8 9,0 6,8 12,3 9,1 4 2 7 4 N 1024,8 48 0,0
20.04.2018 00:00:00 15,1 8,8 8,4 12,3 9,1 3 2 9 5 W 1024,8 53 0,0
19.04.2018 23:00:00 16,5 8,7 9,2 12,2 9,1 5 3 9 5 W 1024,9 57 0,0
19.04.2018 22:00:00 19,8 8,8 10,4 12,1 9,1 8 5 12 6 ONO 1024,5 60 0,0
19.04.2018 21:00:00 20,8 9,1 13,6 12,0 9,1 10 5 13 7 O 1024,1 59 0,0
19.04.2018 20:00:00 23,4 10,1 20,5 11,9 9,0 6 4 14 8 O 1023,6 59 0,0
19.04.2018 19:00:00 25,0 9,3 25,9 11,8 9,0 8 5 20 11 O 1023,4 19 0,0
19.04.2018 18:00:00 25,9 10,9 25,7 11,7 9,0 8 5 22 12 O 1023,4 46 0,0
19.04.2018 17:00:00 26,8 10,9 33,3 11,6 9,0 0 0 16 8 N 1023,3 44 0,0
19.04.2018 16:00:00 26,1 10,3 29,1 11,6 9,0 4 2 26 14 Z 1023,9 60 0,0
19.04.2018 15:00:00 26,1 11,4 32,7 11,5 9,0 3 2 10 6 OZO 1024,4 49 0,0
19.04.2018 14:00:00 25,3 11,1 32,3 11,5 9,0 6 3 14 8 OZO 1024,8 20 0,0
19.04.2018 13:00:00 24,5 11,4 31,7 11,5 9,0 4 2 13 7 O 1025,2 48 0,0
19.04.2018 12:00:00 22,4 10,5 27,2 11,5 9,0 6 3 16 9 Z 1025,9 17 0,0
19.04.2018 11:00:00 20,3 8,3 25,3 11,6 9,0 10 5 21 12 ZZO 1026,3 56 0,0
19.04.2018 10:00:00 19,1 6,9 21,8 11,6 8,9 6 3 11 6 ZZO 1026,5 42 0,0
19.04.2018 09:00:00 16,4 7,6 16,2 11,6 8,9 7 4 13 7 O 1026,8 24 0,0
19.04.2018 08:00:00 13,7 6,8 5,2 11,7 8,9 0 0 6 3 N 1027,0 27 0,0
19.04.2018 07:00:00 10,9 5,4 2,9 11,7 9,0 6 3 11 6 OZO 1027,0 33 0,0
19.04.2018 06:00:00 12,4 5,3 4,6 11,7 8,9 0 0 16 8 N 1026,8 28 0,0
19.04.2018 05:00:00 11,4 5,0 4,5 11,7 8,9 6 3 18 10 O 1026,9 35 0,0
19.04.2018 04:00:00 13,6 5,5 5,3 11,6 8,9 8 4 13 7 O 1026,6 36 0,0
19.04.2018 03:00:00 14,9 6,2 8,4 11,6 8,9 9 5 15 8 O 1026,6 41 0,0
19.04.2018 02:00:00 15,5 6,0 9,1 11,6 8,9 9 5 18 10 ONO 1026,7 46 0,0

tt = temperatuur
td = dauwpunt
tt 5cm = temperatuur 5cm
tt -20cm = temperatuur -20cm
tt -100cm = temperatuur -100cm
ff = windsnelheid
fx = windstoten
dd = windrichting
ppp = luchtdruk
vv = zicht
rr = neerslag

Weerstations in de omgeving